Location: Newark
(44.9333°N, 0.5667°E)
Time: 00:38:48
(UTC+00:00)

N. Korean satellite - Pass Details

Date: 15 December 2019
Orbit: 454 x 507 km, 97.2° (Epoch: 21 January)

Event Time Altitude Azimuth Distance (km) Brightness Sun altitude
Rises 06:00:09 0° 10° (N) 2,530 10.1 -14.9°
Reaches altitude 10° 06:02:14 10° 8° (N) 1,639 9.1 -14.6°
Maximum altitude 06:05:44 73° 284° (WNW) 491 6.3 -14.0°
Drops below altitude 10° 06:09:09 10° 200° (SSW) 1,601 9.2 -13.4°
Sets 06:11:10 0° 198° (SSW) 2,464 10.2 -13.1°
